EGGP

Liverpool John Lennon Airport

Airport
ICAO code
EGGP
IATA Code
LPL
Summary
ICAO Region
EUR
ICAO Territory
Location

Speke, Liverpool, England

Serving
Liverpool
Elevation
80 ft
Coordinates
53° 20' 4" N , 2° 51' 10" W
KCC
Metar
Observation
EGGP 062220Z 13004KT CAVOK 02/M01 Q1038
Station
Liverpool Airport
Date/Time
2023-02-06 22:20:00
Wind direction
130°
Wind speed
04 kts
Lowest cloud amount
clouds and visibility OK
Temperature
2°C
Dew point
-1°C
Humidity
80%
QNH
1038 hPa
Weather condition
n/a

Description

International airport serving Liverpool and environs.

Climatology

Temperate Marine climate/Oceanic climate (Köppen climate classification Cfb). Moderately cool summer and comparatively warm winter with a temperature range of only 14°C. Prevailing south-westerly winds from the Atlantic Ocean.

Runways

Designator Length Width Surface Rops
9/27 2286 46 ASP Yes/Yes

Airport map

Aerial View

SKYbrary Partners:

Safety knowledge contributed by: